Current weather by "City, St" or "zip code"  
 

Current Conditions: MAYPORT NAS

Light Rain and Fog/Mist


73.0 F

Last Updated on Sep 28 2022, 05:23 PM EDT
Humidity: 87%
Wind Speed: mph
Barometer 29.89 in
Dewpoint: 69.1 F
Visibility: 2.00 mi
Precip: 00.03 in
Heat Index: 74.1 F
Wind Chill: NA
Current conditions at:

MAYPORT NAS (KNRB)

Lat: 30.4 Lon: 81.42

Local Radar Image active severe weather and emergency alerts image image weather storm and storm spotter reports image weather observation monitoring service image
Local
Radar
Active
Alerts
Storm Reports Obs
Monitoring

Sign-up For Email & Text Message Weather Alert Notification Services



Advertise Here

Observation History for MAYPORT NAS


Time Wind
(mph)
Vis
(mi)
Weather Precip (in) Temperature (F) Relative
Humidity
Wind
Chill
(F)
Heat
Index
(F)
Pressure
Air Dwpt altimeter
(in)
sea level
(mb)
Rmks
05:23 PM EDT 2.00 Light Rain and Fog/Mist 00.03 73.0 69.1 87% NA 74.1 29.89 1012.2
05:16 PM EDT 1.75 Light Rain and Fog/Mist 00.02 NULL % NA NA M
04:58 PM EDT G 46.1 2.00 Light Rain and Fog/Mist 00.01 73.9 70.0 87% NA 75.2 29.89 1012.2
03:52 PM EDT G 49.4 4.00 Light Rain and Fog/Mist 00.04 75.0 71.1 88% NA 76.3 29.88 1011.9
02:52 PM EDT G 43.8 6.00 Light Rain 00.01 77.0 72.0 84% NA 78.4 29.89 1012.2
01:52 PM EDT G 43.8 7.00 Cloudy Trace 78.1 73.0 85% NA 79.5 29.92 1013.2
12:52 PM EDT G 39.1 7.00 Cloudy 00.04 78.1 73.9 87% NA 79.7 29.92 1013.2
11:52 AM EDT G 35.8 7.00 Light Rain 00.02 79.0 73.0 82% NA 82.2 29.94 1013.9
10:52 AM EDT G 43.8 7.00 Cloudy 00.03 78.1 70.0 76% NA 79.2 29.94 1013.9
09:52 AM EDT G 41.4 7.00 Light Rain Trace 79.0 69.1 72% NA 79.9 29.94 1013.9
08:52 AM EDT 7.00 Cloudy -- 80.1 69.1 69% NA 82.9 29.94 1013.6
07:52 AM EDT NE 26.4 7.00 Cloudy and Breezy 00.01 79.0 66.9 67% NA 79.7 29.92 1013.2
06:52 AM EDT G 33.3 7.00 Cloudy 00.01 75.9 66.9 74% NA 76.6 29.94 1013.6
05:52 AM EDT NE 26.4 7.00 Light Rain Trace 78.1 66.9 69% NA 78.8 29.92 1013.2
05:08 AM EDT 26.4 10.00 Cloudy and Breezy -- 80.1 68.0 67% NA 82.6 29.91 1012.9
04:52 AM EDT 10.00 Cloudy -- NULL % NA NA M
03:52 AM EDT 24.2 10.00 Cloudy and Windy -- 80.1 66.9 64% NA 82.4 29.94 1013.6
02:52 AM EDT 10.00 Cloudy -- 80.1 64.9 60% NA 81.9 29.94 1013.9
01:52 AM EDT 10.00 Cloudy -- 80.1 64.9 60% NA 81.9 29.95 1014.2
12:52 AM EDT 19.7 10.00 Mostly Clear and Windy -- 80.1 64.9 60% NA 81.9 29.97 1014.9
11:52 PM EDT 10.00 Cloudy -- 80.1 63.0 56% NA 81.5 29.97 1014.9
10:52 PM EDT 10.00 Cloudy -- 80.1 60.1 51% NA 81.0 29.97 1014.9
09:52 PM EDT 10.00 Cloudy -- 79.0 62.1 56% NA 79.2 29.97 1014.9
08:52 PM EDT 15.0 10.00 Cloudy -- 80.1 61.0 52% NA 81.1 29.96 1014.6

Regional Weather Observation


FERNANDINA BEACH (KFHB)

Rain
NULL F

JACKSONVIL/CRAIG (KCRG)

Light Rain and Fog/Mist
70.0 F

MAYPORT NAS (KNRB)

Light Rain and Fog/Mist
73.0 F

JACKSONVILLE NAS (KNIP)

Light Rain
72.0 F

JACKSONVIL/CECIL (KVQQ)

Light Rain
68.0 F

BRUNSWICK (KSSI)

Mostly Cloudy and Windy
69.1 F

Advertise Here


Advertise Here